[[{"header":{"parameterUnit":"m.s-1","parameterCategory":1,"la1":30.2991,"la2":30.254,"lo1":-89.0895,"lo2":-89.0444,"dy":0.0017,"dx":0.0017,"nx":28,"ny":28,"refTime":"2023-11-03T03:00:00:Z","depth":0,"parameterNumber":2,"parameterNumberName":"U-component_of_WINDS"},"data":[0,0,0,0,0,0,0,0,0,0,0,0,0,0,0,0,0,0,0,0,0,0,0,0,0,0,0,0,0,0,0,0,0,0,0,0,0,0,0,0,0,0,0,0,0,0,0,0,0,0,0,0,0,0,0,0,0,0,-2.6499,-2.6498,0,-2.6444,-2.6443,-2.6443,-2.631,-2.6308,-2.6305,-2.6302,-2.6251,-2.6252,-2.6253,0,0,0,0,0,0,0,0,0,0,0,0,0,-2.6494,-2.6495,-2.6499,-2.6498,-2.6498,-2.6444,-2.6443,-2.6443,-2.6311,-2.6308,-2.6304,-2.6301,-2.625,-2.6252,-2.6253,0,0,0,0,0,0,0,0,0,0,0,0,0,-2.6474,-2.6495,-2.6499,-2.6425,-2.6418,-2.6444,-2.6443,-2.6442,-2.6312,-2.6307,-2.6303,-2.6299,-2.625,-2.6251,-2.6253,-2.6348,0,0,-2.6259,-2.626,0,0,0,0,0,0,0,0,-2.6475,-2.6474,-2.6437,-2.643,-2.6422,-2.638,-2.6422,-2.6411,-2.6313,-2.6352,-2.6302,-2.6297,-2.6297,-2.6295,-2.6294,-2.6345,-2.6343,-2.6259,-2.626,-2.6261,-2.6261,0,0,0,0,0,0,0,-2.6477,-2.6476,-2.6477,-2.6437,-2.6428,-2.6396,-2.6389,-2.642,-2.6349,-2.6349,-2.6339,-2.6334,-2.6292,-2.6292,-2.6292,-2.6342,-2.6259,-2.626,-2.6262,-2.6262,-2.647,-2.6475,0,0,0,0,0,0,-2.6488,-2.6478,-2.6479,-2.6476,-2.6439,-2.64,-2.6391,-2.6398,-2.6348,-2.6336,-2.6337,-2.6328,-2.6291,-2.629,-2.6289,-2.6398,-2.6261,-2.6262,-2.6263,-2.6466,-2.6471,-2.6476,0,0,0,0,0,0,-2.6489,-2.649,-2.6481,-2.6474,-2.6471,-2.6404,-2.6413,-2.6399,-2.6398,-2.634,-2.6327,-2.635,-2.6288,-2.6287,-2.6334,-2.6395,-2.6263,-2.6265,-2.6461,-2.6468,-2.6474,-2.6616,0,0,0,0,0,0,-2.6489,-2.649,-2.6525,-2.6476,-2.6471,-2.6526,-2.6416,-2.6401,-2.6401,-2.6388,-2.6348,-2.6338,-2.6285,-2.6332,-2.6336,-2.6395,-2.6266,-2.6455,-2.6464,-2.6472,-2.6606,-2.6627,-2.6645,0,0,0,0,0,-2.6489,-2.6568,-2.6527,-2.6528,-2.6513,-2.653,-2.6528,-2.6464,-2.6407,-2.6442,-2.6404,-2.6339,-2.6387,-2.6338,-2.6341,-2.6402,-2.6451,-2.6461,-2.6471,-2.6597,-2.6623,-2.6645,0,0,0,0,0,0,-2.6627,-2.656,-2.6514,-2.6579,-2.6561,-2.6508,-2.6549,-2.6493,-2.6492,-2.648,-2.6402,-2.6394,-2.6453,-2.6431,-2.6378,-2.6491,-2.6409,-2.642,-2.6504,-2.6527,-2.6547,-2.6552,-2.6268,0,0,0,0,0,-2.6665,-2.6683,-2.6624,-2.6687,-2.668,-2.6617,-2.6622,-2.6574,-2.6553,-2.6545,-2.6511,-2.6494,-2.6505,-2.6515,-2.6522,-2.6601,-2.6592,-2.6644,-2.6664,-2.668,-2.6692,-2.6734,-2.6758,-2.6509,-2.6509,-2.6509,0,0,-2.6743,-2.6709,-2.6725,-2.6713,-2.6694,-2.6716,-2.6611,-2.6639,-2.6655,-2.655,-2.6593,-2.6567,-2.6543,-2.6608,-2.6635,-2.6592,-2.6758,-2.6693,-2.6707,-2.6709,-2.6747,-2.6771,-2.6792,-2.6516,-2.6515,-2.6513,0,0,-2.6898,-2.6873,-2.6923,-2.6906,-2.6877,-2.6834,-2.6847,-2.6802,-2.6781,-2.6822,-2.6744,-2.6762,-2.6783,-2.677,-2.6766,-2.6916,-2.6858,-2.6921,-2.7024,-2.7067,-2.7086,-2.7103,-2.7159,-2.718,-2.6932,-2.6932,-2.6932,0,-2.7,-2.7029,-2.6957,-2.699,-2.6988,-2.6891,-2.6943,-2.693,-2.6906,-2.6908,-2.6859,-2.6884,-2.6861,-2.6922,-2.6959,-2.6958,-2.6972,-2.6926,-2.7089,-2.7105,-2.712,-2.7173,-2.7194,-2.694,-2.6939,-2.6938,-2.6938,0,-2.7157,-2.7178,-2.7223,-2.7201,-2.7203,-2.7246,-2.7181,-2.7193,-2.7145,-2.7108,-2.7153,-2.7122,-2.7122,-2.7132,-2.7086,-2.7187,-2.7162,-2.7103,-2.7018,-2.7153,-2.7202,-2.7221,-2.6952,-2.6949,-2.6946,-2.6944,0,0,-2.7399,-2.7336,-2.7353,-2.7343,-2.7304,-2.732,-2.7359,-2.7357,-2.737,-2.7356,-2.7389,-2.7408,-2.7353,-2.7349,-2.73,-2.7337,-2.7461,-2.7273,-2.7271,-2.7311,-2.7574,-2.7621,-2.7645,-2.7421,-2.7424,-2.7427,-2.7577,0,-2.7546,-2.7607,-2.7543,-2.7618,-2.7639,-2.7547,-2.7581,-2.7562,-2.7529,-2.7542,-2.7505,-2.7521,-2.7446,-2.7443,-2.7475,-2.7439,-2.7513,-2.7427,-2.7452,-2.7454,-2.7464,-2.767,-2.772,-2.7863,-2.7595,-2.7598,-2.76,0,-2.7727,-2.7721,-2.7798,-2.7755,-2.7761,-2.7793,-2.7787,-2.78,-2.7777,-2.775,-2.7746,-2.7686,-2.7723,-2.7639,-2.769,-2.7633,-2.7639,-2.7623,-2.7627,-2.7629,-2.7538,-2.7681,-2.7906,-2.7929,-2.7629,-2.7627,-2.7625,0,-2.7899,-2.791,-2.7957,-2.7951,-2.7902,-2.7926,-2.7907,-2.788,-2.7884,-2.7879,-2.7881,-2.7881,-2.7882,-2.7884,-2.7827,-2.7771,-2.7886,-2.7797,-2.7867,-2.7869,-2.7898,-2.7897,-2.8131,-2.7898,-2.7898,-2.7897,-2.7897,0,-2.8072,-2.8123,-2.8034,-2.8064,-2.8119,-2.8046,-2.8103,-2.8075,-2.8051,-2.8075,-2.7996,-2.8021,-2.7942,-2.7959,-2.7915,-2.7965,-2.7966,-2.7947,-2.7935,-2.7956,-2.7959,-2.7961,-2.795,-2.7903,-2.7902,-2.79,-2.7899,0,-2.8274,-2.8216,-2.8263,-2.8212,-2.82,-2.8244,-2.8201,-2.8227,-2.8188,-2.822,-2.8223,-2.8163,-2.8178,-2.8121,-2.8128,-2.8098,-2.8173,-2.8143,-2.8181,-2.8173,-2.8247,-2.8242,-2.8493,-2.8523,-2.8269,-2.8271,-2.8273,0,-2.8389,-2.8427,-2.838,-2.8389,-2.8374,-2.8391,-2.8394,-2.8323,-2.8329,-2.8306,-2.8337,-2.8345,-2.8349,-2.8379,-2.8337,-2.8342,-2.8314,-2.8401,-2.8314,-2.8334,-2.8318,-2.8318,-2.8323,-2.842,-2.8423,-2.8426,-2.8428,0,-2.8601,-2.8571,-2.8577,-2.8575,-2.858,-2.8575,-2.8564,-2.8577,-2.8501,-2.8513,-2.8527,-2.853,-2.8537,-2.8548,-2.8544,-2.8526,-2.8466,-2.8455,-2.8472,-2.8495,-2.8516,-2.8509,-2.8233,-2.8451,-2.8448,-2.8447,-2.8445,-2.8444,-2.8765,-2.8795,-2.8767,-2.8777,-2.8761,-2.8753,-2.8776,-2.8739,-2.875,-2.8749,-2.8706,-2.873,-2.8707,-2.8696,-2.8684,-2.8702,-2.8662,-2.8686,-2.8693,-2.8701,-2.8715,-2.8511,-2.8701,-2.87,-2.87,-2.8699,-2.8699,0,-2.8975,-2.8952,-2.8963,-2.895,-2.8959,-2.8898,-2.8884,-2.8896,-2.8917,-2.89,-2.8905,-2.8923,-2.8933,-2.8892,-2.8897,-2.892,-2.8893,-2.8924,-2.8923,-2.8921,-2.8749,-2.8735,-2.8946,-2.8946,-2.8946,-2.8946,-2.8946,-2.8946,-2.9086,-2.9133,-2.91,-2.9139,-2.9116,-2.9137,-2.9135,-2.9128,-2.9114,-2.9137,-2.9145,-2.9116,-2.909,-2.9093,-2.91,-2.9088,-2.9095,-2.9136,-2.9115,-2.8956,-2.8932,-2.891,-2.8896,-2.9138,-2.9138,-2.9285,-2.9287,-2.9288]},{"header":{"parameterUnit":"m.s-1","parameterCategory":1,"la1":30.2991,"la2":30.254,"lo1":-89.0895,"lo2":-89.0444,"dy":0.0017,"dx":0.0017,"nx":28,"ny":28,"refTime":"2023-11-03T03:00:00:Z","depth":0,"parameterNumber":3,"parameterNumberName":"V-component_of_WINDS"},"data":[0,0,0,0,0,0,0,0,0,0,0,0,0,0,0,0,0,0,0,0,0,0,0,0,0,0,0,0,0,0,0,0,0,0,0,0,0,0,0,0,0,0,0,0,0,0,0,0,0,0,0,0,0,0,0,0,0,0,-0.9415,-0.9416,0,-0.954,-0.9542,-0.9543,-0.9568,-0.9567,-0.9566,-0.9565,-0.9698,-0.9703,-0.9707,0,0,0,0,0,0,0,0,0,0,0,0,0,-0.9199,-0.9203,-0.9414,-0.9416,-0.9418,-0.954,-0.9542,-0.9544,-0.9568,-0.9567,-0.9566,-0.9565,-0.9697,-0.9702,-0.9707,0,0,0,0,0,0,0,0,0,0,0,0,0,-0.9306,-0.9204,-0.9414,-0.9445,-0.9448,-0.954,-0.9542,-0.9544,-0.9568,-0.9567,-0.9565,-0.9564,-0.9695,-0.9702,-0.9708,-0.9779,0,0,-0.9729,-0.9732,0,0,0,0,0,0,0,0,-0.9299,-0.9313,-0.9439,-0.9443,-0.9447,-0.9537,-0.9515,-0.9623,-0.9569,-0.9523,-0.9565,-0.9563,-0.9646,-0.9657,-0.9684,-0.9786,-0.9791,-0.9729,-0.9733,-0.9736,-0.9738,0,0,0,0,0,0,0,-0.9292,-0.9308,-0.9464,-0.944,-0.9446,-0.9453,-0.9466,-0.9535,-0.9592,-0.9527,-0.9529,-0.9543,-0.9648,-0.9677,-0.9687,-0.9793,-0.9729,-0.9735,-0.9739,-0.9742,-0.9961,-0.9963,0,0,0,0,0,0,-0.9279,-0.9302,-0.946,-0.9468,-0.9368,-0.9458,-0.9473,-0.951,-0.9591,-0.9602,-0.9544,-0.9544,-0.9666,-0.9679,-0.9692,-0.9782,-0.9736,-0.9742,-0.9746,-0.9959,-0.9962,-0.9963,0,0,0,0,0,0,-0.9274,-0.9293,-0.9455,-0.9386,-0.9407,-0.9463,-0.9504,-0.9513,-0.9542,-0.9604,-0.9614,-0.9564,-0.9666,-0.9682,-0.9757,-0.9787,-0.9745,-0.9752,-0.9957,-0.996,-0.9963,-0.9962,0,0,0,0,0,0,-0.9268,-0.9291,-0.9318,-0.9386,-0.941,-0.9518,-0.9506,-0.9516,-0.9553,-0.9554,-0.9625,-0.9635,-0.9666,-0.9747,-0.9764,-0.9796,-0.9757,-0.9955,-0.9958,-0.9962,-0.996,-0.9965,-0.9969,0,0,0,0,0,-0.926,-0.9314,-0.9319,-0.9338,-0.9445,-0.952,-0.9534,-0.9567,-0.9555,-0.9584,-0.9623,-0.9633,-0.978,-0.9755,-0.9774,-0.9808,-0.9953,-0.9957,-0.9961,-0.9958,-0.9964,-0.9969,0,0,0,0,0,0,-0.9249,-0.9323,-0.933,-0.9407,-0.9457,-0.9523,-0.9561,-0.9571,-0.9627,-0.9625,-0.9665,-0.9681,-0.9754,-0.9788,-0.9758,-0.9881,-0.9866,-0.9874,-0.9857,-0.9863,-0.9867,-0.9859,-0.9762,0,0,0,0,0,-0.9255,-0.9308,-0.937,-0.9432,-0.9457,-0.9504,-0.9538,-0.9558,-0.9612,-0.9634,-0.9679,-0.9732,-0.979,-0.9828,-0.9885,-0.9964,-0.9981,-0.9996,-1.0001,-1.0004,-1.0012,-1.0057,-1.0066,-0.9977,-0.9977,-0.9977,0,0,-0.927,-0.9317,-0.9348,-0.9431,-0.9472,-0.9528,-0.9522,-0.958,-0.9623,-0.9643,-0.9717,-0.9752,-0.9813,-0.9891,-0.9927,-0.9922,-1.0039,-1.0009,-1.0011,-1.0017,-1.0062,-1.0071,-1.0078,-0.998,-0.9979,-0.9979,0,0,-0.9325,-0.9364,-0.9421,-0.9462,-0.9523,-0.9554,-0.9567,-0.9632,-0.9656,-0.9729,-0.9746,-0.9797,-0.9896,-0.994,-0.9975,-1.0044,-1.0056,-1.0061,-1.0085,-1.0129,-1.0137,-1.0143,-1.017,-1.0179,-1.0068,-1.0068,-1.0068,0,-0.9336,-0.9419,-0.9449,-0.9507,-0.9544,-0.9563,-0.9621,-0.9659,-0.9737,-0.9762,-0.9754,-0.9878,-0.9921,-1.001,-1.0027,-1.0053,-1.0072,-1.0055,-1.0133,-1.0139,-1.0146,-1.0173,-1.0182,-1.0068,-1.0068,-1.0068,-1.0068,0,-0.943,-0.9487,-0.9526,-0.9598,-0.9639,-0.9697,-0.9737,-0.9775,-0.9791,-0.9823,-0.9899,-0.995,-1.0018,-1.004,-1.0057,-1.0131,-1.0126,-1.0124,-1.0111,-1.0155,-1.018,-1.019,-1.0069,-1.0069,-1.0069,-1.0068,0,0,-0.9486,-0.9572,-0.9586,-0.962,-0.9688,-0.9733,-0.9792,-0.9857,-0.9889,-0.9941,-0.9993,-1.0075,-1.0074,-1.0114,-1.0135,-1.0174,-1.0228,-1.0168,-1.017,-1.018,-1.0315,-1.0319,-1.033,-1.0234,-1.0236,-1.0238,-1.0311,0,-0.9551,-0.9656,-0.9684,-0.9774,-0.9828,-0.9845,-0.9896,-0.9944,-0.9975,-1.0026,-1.006,-1.0119,-1.0111,-1.0136,-1.0174,-1.0213,-1.0256,-1.0208,-1.0286,-1.0288,-1.0273,-1.0343,-1.0347,-1.0414,-1.0321,-1.0323,-1.0324,0,-0.9643,-0.9695,-0.9789,-0.985,-0.9874,-0.9919,-0.9981,-1.0029,-1.0084,-1.0103,-1.0147,-1.0165,-1.0228,-1.0207,-1.0296,-1.0262,-1.0295,-1.0319,-1.0323,-1.0334,-1.0311,-1.0359,-1.0435,-1.0447,-1.034,-1.0338,-1.0337,0,-0.9677,-0.9771,-0.984,-0.9867,-0.9939,-0.9971,-1.0003,-1.0056,-1.0093,-1.0147,-1.0172,-1.0232,-1.0267,-1.0314,-1.0348,-1.033,-1.0435,-1.0417,-1.0455,-1.0455,-1.048,-1.0479,-1.0566,-1.0495,-1.0495,-1.0495,-1.0494,0,-0.9749,-0.9807,-0.9856,-0.9899,-0.9964,-0.9996,-1.006,-1.0093,-1.0139,-1.019,-1.0207,-1.0254,-1.0295,-1.0348,-1.0375,-1.0446,-1.046,-1.0479,-1.0487,-1.048,-1.0478,-1.0505,-1.0503,-1.0497,-1.0497,-1.0496,-1.0496,0,-0.9801,-0.9835,-0.9912,-0.9973,-0.9989,-1.0035,-1.0088,-1.0131,-1.0161,-1.0224,-1.0241,-1.0289,-1.0352,-1.039,-1.047,-1.0488,-1.0567,-1.0571,-1.0549,-1.0553,-1.059,-1.0587,-1.0701,-1.0718,-1.0632,-1.0633,-1.0634,0,-0.9847,-0.9892,-0.9956,-0.9991,-1.0022,-1.0077,-1.0115,-1.0147,-1.0185,-1.025,-1.0286,-1.0349,-1.0402,-1.0502,-1.0546,-1.0607,-1.0614,-1.0649,-1.0624,-1.0616,-1.0619,-1.0617,-1.0623,-1.0655,-1.0656,-1.0657,-1.0657,0,-0.9925,-0.994,-0.9992,-1.0051,-1.0095,-1.0143,-1.0191,-1.0218,-1.0259,-1.0301,-1.0365,-1.0406,-1.0487,-1.0551,-1.0615,-1.0649,-1.0661,-1.0664,-1.0677,-1.0673,-1.0659,-1.067,-1.0564,-1.0662,-1.0662,-1.0662,-1.0661,-1.0661,-0.9978,-1.0019,-1.0071,-1.0129,-1.0168,-1.0212,-1.0255,-1.029,-1.0343,-1.0411,-1.0426,-1.0494,-1.0547,-1.0635,-1.067,-1.0724,-1.0719,-1.0737,-1.0742,-1.0747,-1.0749,-1.0647,-1.0736,-1.0736,-1.0736,-1.0735,-1.0735,0,-1.006,-1.0094,-1.0146,-1.0212,-1.0258,-1.0261,-1.0314,-1.0353,-1.0412,-1.046,-1.0511,-1.0585,-1.0646,-1.0693,-1.0756,-1.0791,-1.0798,-1.0807,-1.0807,-1.0815,-1.0749,-1.0733,-1.08,-1.08,-1.08,-1.08,-1.08,-1.08,-1.0109,-1.0179,-1.0199,-1.0288,-1.0322,-1.0387,-1.0418,-1.0459,-1.0497,-1.0578,-1.0629,-1.0658,-1.0706,-1.0772,-1.0829,-1.0841,-1.0865,-1.0874,-1.0888,-1.0826,-1.0819,-1.0813,-1.0798,-1.0878,-1.0878,-1.095,-1.095,-1.0951]}]]